Firenze / Peretola, Italy

11:10 PM CET on February 25, 2017 (GMT +0100)
Firenze / Peretola

Weather History for 16170 - April, 2014

Change the Weather History Date:

Tuesday, April 8, 2014

  Actual Average Record
Temperature  
Mean Temperature 60 °F -  
Max Temperature 70 °F 68 °F - ()
Min Temperature 49 °F 48 °F - ()
Degree Days  
Heating Degree Days 6    
Growing Degree Days 10 (Base 50)    
Moisture  
Dew Point 52 °F    
Average Humidity 75    
Maximum Humidity 94    
Minimum Humidity 48    
Precipitation  
Precipitation 0.20 in 0.10 in - ()
Sea Level Pressure  
Sea Level Pressure 30.10 in    
Wind  
Wind Speed 4 mph ()    
Max Wind Speed 14 mph    
Max Gust Speed -    
Visibility 6.5 miles    
Events Rain    
T = Trace of Precipitation, MM = Missing Value Source: Averaged Metar Reports

Daily Weather History Graph

Daily Weather History Graph

Search for Another Location

Airport or City:

Trip Planner

Search our weather history database for the weather conditions in past years. The results will help you decide how hot, cold, wet, or windy it might be!

Date:

Astronomy

Apr. 08, 2014 Rise Set
Actual Time 6:44 AM CEST 7:50 PM CEST
Civil Twilight 6:15 AM CEST 8:19 PM CEST
Nautical Twilight 5:40 AM CEST 8:55 PM CEST
Astronomical Twilight 5:03 AM CEST 9:32 PM CEST
Moon 1:17 PM CEST (4/8) 2:58 AM CEST (4/8)
Length of Visible Light 14h 04m
Length of Day
13h 05m
First Quarter, 60% of the Moon is Illuminated
Apr 8
First Quarter
Apr 15
Full
Apr 22
Last Quarter
Apr 29
New
May 7
First Quarter

Hourly Weather History & Observations

Time (CEST) Temp. Dew Point Humidity Pressure Visibility Wind Dir Wind Speed Gust Speed Precip Events Conditions
12:20 AM 55.4 °F 50.0 °F 82% 30.12 in - East 5.8 mph - N/A   Clear
12:50 AM 55.4 °F 50.0 °F 82% 30.12 in - Variable 1.2 mph - N/A   Clear
1:20 AM 55.4 °F 48.2 °F 77% 30.12 in - ENE 1.2 mph - N/A   Clear
1:50 AM 53.6 °F 48.2 °F 82% 30.12 in - East 5.8 mph - N/A   Clear
2:00 AM 53 °F 48 °F 78% 30.14 in 12 mi East 4.6 mph - -  
2:20 AM 53.6 °F 48.2 °F 82% 30.12 in - East 4.6 mph - N/A   Clear
2:50 AM 53.6 °F 48.2 °F 82% 30.12 in - East 4.6 mph - N/A   Clear
3:20 AM 53.6 °F 46.4 °F 77% 30.12 in - East 3.5 mph - N/A   Clear
3:50 AM 51.8 °F 46.4 °F 82% 30.12 in - East 2.3 mph - N/A   Clear
4:20 AM 51.8 °F 48.2 °F 88% 30.12 in - ESE 2.3 mph - N/A   Clear
4:50 AM 51.8 °F 48.2 °F 88% 30.12 in - Variable 2.3 mph - N/A   Clear
5:00 AM 50 °F 46 °F 81% 30.14 in 12 mi ENE 3.5 mph - -  
5:20 AM 50.0 °F 48.2 °F 94% 30.12 in 6.2 mi East 4.6 mph - N/A   Scattered Clouds
5:50 AM 51.8 °F 48.2 °F 88% 30.12 in 6.2 mi East 2.3 mph - N/A   Mostly Cloudy
6:20 AM 50.0 °F 46.4 °F 87% 30.12 in 6.2 mi East 3.5 mph - N/A   Partly Cloudy
6:50 AM 51.8 °F 48.2 °F 88% 30.12 in 6.2 mi Variable 2.3 mph - N/A   Mostly Cloudy
7:20 AM 50.0 °F 46.4 °F 87% 30.12 in 6.2 mi ENE 2.3 mph - N/A   Partly Cloudy
7:50 AM 51.8 °F 48.2 °F 88% 30.12 in 6.2 mi ENE 1.2 mph - N/A   Partly Cloudy
8:00 AM 53 °F 49 °F 81% 30.15 in 6 mi ENE 1.2 mph - -   Scattered Clouds
8:20 AM 55.4 °F 50.0 °F 82% 30.12 in 6.2 mi Calm Calm - N/A   Partly Cloudy
8:50 AM 59.0 °F 51.8 °F 77% 30.15 in 5.0 mi Calm Calm - N/A   Partly Cloudy
9:20 AM 57.2 °F 53.6 °F 88% 30.15 in 5.0 mi Variable 2.3 mph - N/A   Mostly Cloudy
9:50 AM 57.2 °F 53.6 °F 88% 30.15 in 5.0 mi Variable 2.3 mph - N/A   Mostly Cloudy
10:20 AM 59.0 °F 53.6 °F 82% 30.15 in 5.0 mi Variable 1.2 mph - N/A   Scattered Clouds
10:50 AM 60.8 °F 55.4 °F 82% 30.15 in 5.0 mi Calm Calm - N/A   Mostly Cloudy
11:00 AM 62 °F 55 °F 70% 30.15 in 5 mi WSW 1.2 mph - -   Mist
11:20 AM 62.6 °F 55.4 °F 77% 30.12 in 6.2 mi Variable 1.2 mph - N/A   Partly Cloudy
11:50 AM 64.4 °F 55.4 °F 73% 30.12 in 6.2 mi Variable 3.5 mph - N/A   Partly Cloudy
12:20 PM 66.2 °F 55.4 °F 68% 30.12 in 6.2 mi Variable 3.5 mph - N/A   Partly Cloudy
12:50 PM 68.0 °F 55.4 °F 64% 30.12 in 6.2 mi SSW 9.2 mph - N/A   Partly Cloudy
1:20 PM 68.0 °F 53.6 °F 60% 30.12 in 6.2 mi SW 6.9 mph - N/A   Partly Cloudy
1:50 PM 69.8 °F 55.4 °F 60% 30.09 in 6.2 mi WSW 6.9 mph - N/A   Partly Cloudy
2:00 PM 70 °F 56 °F 50% 30.10 in 9 mi WSW 4.6 mph - -   Scattered Clouds
2:20 PM 69.8 °F 53.6 °F 56% 30.09 in 6.2 mi WSW 9.2 mph - N/A   Partly Cloudy
2:50 PM 69.8 °F 51.8 °F 53% 30.09 in 6.2 mi SSW 10.4 mph - N/A   Partly Cloudy
3:20 PM 69.8 °F 51.8 °F 53% 30.06 in 6.2 mi SW 11.5 mph - N/A   Partly Cloudy
3:50 PM 68.0 °F 51.8 °F 56% 30.06 in 6.2 mi SW 12.7 mph - N/A   Partly Cloudy
4:20 PM 68.0 °F 51.8 °F 56% 30.06 in 6.2 mi SW 12.7 mph - N/A   Partly Cloudy
4:50 PM 68.0 °F 51.8 °F 56% 30.06 in 6.2 mi SW 12.7 mph - N/A   Partly Cloudy
5:00 PM 68 °F 53 °F 48% 30.06 in 16 mi SW 11.5 mph - -   Overcast
5:20 PM 68.0 °F 50.0 °F 52% 30.06 in 6.2 mi SW 13.8 mph - N/A   Partly Cloudy
5:50 PM 66.2 °F 51.8 °F 60% 30.04 in 6.2 mi SSW 12.7 mph - N/A   Partly Cloudy
6:20 PM 66.2 °F 51.8 °F 60% 30.04 in 6.2 mi SW 10.4 mph - N/A   Partly Cloudy
6:50 PM 66.2 °F 51.8 °F 60% 30.04 in 6.2 mi SSW 8.1 mph - N/A   Partly Cloudy
7:20 PM 64.4 °F 51.8 °F 64% 30.04 in 6.2 mi SSW 10.4 mph - N/A   Partly Cloudy
7:50 PM 62.6 °F 50.0 °F 63% 30.04 in 6.2 mi SW 9.2 mph - N/A   Scattered Clouds
8:00 PM 63 °F 51 °F 56% 30.04 in 9 mi SW 10.4 mph - -   Overcast
8:20 PM 60.8 °F 53.6 °F 77% 30.04 in 6.2 mi WSW 9.2 mph - N/A Rain Light Rain
8:50 PM 59.0 °F 55.4 °F 88% 30.04 in 3.1 mi SW 6.9 mph - N/A Rain Rain
9:20 PM 57.2 °F 55.4 °F 94% 30.06 in 3.1 mi Variable 2.3 mph - N/A Rain Rain
9:50 PM 57.2 °F 55.4 °F 94% 30.06 in 6.2 mi Variable 1.2 mph - N/A Rain Light Rain
10:20 PM 57.2 °F 55.4 °F 94% 30.06 in 6.2 mi Variable 2.3 mph - N/A   Light Drizzle
10:50 PM 57.2 °F 55.4 °F 94% 30.06 in 6.2 mi SSE 3.5 mph - N/A   Mostly Cloudy
11:00 PM 58 °F 56 °F 90% 30.07 in 5 mi South 2.3 mph - -   Mist
11:20 PM 57.2 °F 55.4 °F 94% 30.06 in 6.2 mi South 3.5 mph - N/A   Mostly Cloudy
11:50 PM 57.2 °F 55.4 °F 94% 30.06 in 6.2 mi SE 3.5 mph - N/A   Mostly Cloudy